Weather Roundup
Issued by NWS Chicago, IL

Home | Current Version | Previous Version | Graphics & Text | Print | Product List | Glossary On
Versions: 1 2 3 4 5 6 7 8 9 10 11 12 13 14 15 16 17 18 19 20 21 22 23 24 25 26 27 28 29 30 31 32 33 34 35 36 37 38 39 40 41 42 43 44 45 46 47 48 49 50
000
NZUS59 KLOT 270706
HRRLOT

CHICAGO AREA WEATHER ROUNDUP
NATIONAL WEATHER SERVICE CHICAGO/ROMEOVILLE IL
200 AM CDT WED AUG 27 2014

NOTE: "FAIR" INDICATES FEW OR NO CLOUDS BELOW 12,000 FEET WITH NO
SIGNIFICANT WEATHER AND/OR OBSTRUCTIONS TO VISIBILITY.

* THESE STATIONS ARE NOT UNDER NWS QUALITY CONTROL. THEY ALSO MAY NOT
  REPORT WEATHER SUCH AS PRECIPITATION OR FOG.

ILZ005-006-012>014-019>023-270800-
NORTHEAST ILLINOIS

CITY           SKY/WX    TMP DP  RH WIND       PRES   REMARKS
OHARE          MOCLDY    71  63  75 NE5       30.11R
MIDWAY         MOCLDY    73  68  84 CALM      30.10F
AURORA         MOCLDY    69  65  86 CALM      30.12S
LANSING*       MOCLDY    69  67  93 NE3       30.11S
JOLIET*        MOCLDY    70  66  88 N5        30.11F
WAUKEGAN       MOCLDY    65  62  90 CALM      30.12R
DUPAGE AIRPORT MOCLDY    69  63  81 N3        30.12R
WHEELING       MOCLDY    69  66  90 CALM      30.13R
KANKAKEE*      CLOUDY    71  68  92 NE6       30.11S
MORRIS*        CLOUDY    70  70  99 CALM      30.10F
LEWIS AIRPORT* PTCLDY    69  67  95 NE6       30.11S
NORTHERLY IS     N/A     71  65  81 NE5         N/A
$$

WIZ051-052-058>065-066-070>072-270800-
SOUTHEAST WISCONSIN

CITY           SKY/WX    TMP DP  RH WIND       PRES   REMARKS
MILWAUKEE      CLOUDY    66  57  72 N3        30.12S
KENOSHA*       MOCLDY    65  61  87 N6        30.12F
RACINE*        MOCLDY    65  60  84 N5        30.14S
BURLINGTON     CLOUDY    60  60  99 CALM      30.13F
WAUKESHA       CLOUDY    61  55  82 CALM      30.14F
WEST BEND      CLOUDY    61  55  82 W3        30.14S
$$

INZ001>003-010>013-019-020-270800-
NORTHWEST INDIANA

CITY           SKY/WX    TMP DP  RH WIND       PRES   REMARKS
GARY*          MOCLDY    71  68  92 E5        30.11F
MICHIGAN CITY* NOT AVBL
RENSSELAER*    NOT AVBL
VALPARAISO     FOG       67  66  97 NE5       30.12F VSB 1/4
$$

LMZ740>746-270800-
SOUTHERN LAKE MICHIGAN

STATION/POSITION TIME  SKY/WX   TEMP WIND        PRES    VSBY
                                AIR  DIR/SP/G
                 (UTC)          (F)  (DEG/KT/KT) (MB)    (MI)
HARRISON CRIB    0700            71   90/  4/  5   N/A
BURNHAM HARBOR   0700            71   50/  4/  6   N/A
CALUMET HARBOR   0700            71   10/  4/  5 1018.2F
BURNS HARBOR     NOT AVBL
MICHIGAN CITY    0700            68   60/  6/  8   N/A
$$

ABBREVIATIONS USED IN REMARKS
   TC - TEMPERATURE IN CELSIUS
  WCI - WIND CHILL INDEX
   HX - HEAT INDEX
  VSB - VISIBILITY
$$



USA.gov is the U.S. government's official web portal to all federal, state and local government web resources and services.